This is the latest recevied weather packets stored in our database for station/object EW2310. If no packets are shown the sender has not sent any weather packets the latest 10 day(s).
| Time | Temp. | Humidity | Pressure | Rain* | Wind** | Luminosity | Snow |
|---|---|---|---|---|---|---|---|
| 1777293341 | 21.67° C | 58% | 1016.5 hPa | 0 mm | - | 689 W/m² | - |
| 1777292441 | 21.67° C | 54% | 1016.6 hPa | 0 mm | - | 533 W/m² | - |
| 1777290641 | 21.67° C | 49% | 1016.7 hPa | 0 mm | - | 923 W/m² | - |
| 1777290044 | 21.67° C | 59% | 1016.8 hPa | 0 mm | - | 928 W/m² | - |
| 1777284941 | 21.11° C | 67% | 1017.4 hPa | 0 mm | - | 909 W/m² | - |
| 1777284341 | 21.11° C | 67% | 1017.4 hPa | 0 mm | - | 900 W/m² | - |
| 1777282241 | 21.11° C | 68% | 1017.7 hPa | 0 mm | - | 860 W/m² | - |
| 1777279242 | 20.56° C | 64% | 1017.9 hPa | 0 mm | - | 626 W/m² | - |
| 1777277441 | 20° C | 66% | 1017.9 hPa | 0 mm | - | 589 W/m² | - |
| 1777276841 | 19.44° C | 65% | 1018 hPa | 0 mm | - | 605 W/m² | - |
| 1777276541 | 18.89° C | 67% | 1018 hPa | 0 mm | - | 613 W/m² | - |
| 1777275641 | 18.89° C | 68% | 1017.9 hPa | 0 mm | - | 605 W/m² | - |
| 1777273241 | 17.22° C | 82% | 1018 hPa | 0 mm | - | 461 W/m² | - |
| 1777271141 | 15.56° C | 88% | 1018 hPa | 0 mm | - | 360 W/m² | - |
| 1777269641 | 14.44° C | 90% | 1017.8 hPa | 0 mm | - | 197 W/m² | - |
| 1777269341 | 14.44° C | 90% | 1017.7 hPa | 0 mm | - | 294 W/m² | - |
| 1777267841 | 13.89° C | 90% | 1017.8 hPa | 0 mm | - | 121 W/m² | - |
| 1777266341 | 13.33° C | 91% | 1017.4 hPa | 0 mm | - | 86 W/m² | - |
| 1777265741 | 13.33° C | 91% | 1017.4 hPa | 0 mm | - | 62 W/m² | - |
| 1777265141 | 13.33° C | 91% | 1017.4 hPa | 0 mm | - | 40 W/m² | - |
| 1777263344 | 13.33° C | 90% | 1017.3 hPa | 0 mm | - | 5 W/m² | - |
| 1777262441 | 13.89° C | 90% | 1017.3 hPa | 0 mm | - | 0 W/m² | - |
| 1777261541 | 13.89° C | 90% | 1017.1 hPa | 0 mm | - | 0 W/m² | - |
| 1777259141 | 13.89° C | 91% | 1017.1 hPa | 0 mm | - | 0 W/m² | - |
| 1777254641 | 13.89° C | 91% | 1017.2 hPa | 0 mm | - | 0 W/m² | - |
* Rain latest hour (hover to see other rain measurements)
** Current wind speed in m/s (hover to see current wind gust speed)